EN

Hourly Weather Allendorf

Today, 18 January, Monday

Time Temperature Precipitation Wind Pressure Humidity
00:00 0°C° 0.5 mm 3 mps 731 mmHg 98%
01:00 0°C° 0.5 mm 3 mps 731 mmHg 98%
02:00 0°C° 0.1 mm 3 mps 731 mmHg 97%
03:00 0°C° 0.1 mm 3 mps 731 mmHg 96%
04:00 0°C° 0.1 mm 3 mps 731 mmHg 95%
05:00 0°C° 0 mm 3 mps 731 mmHg 95%
06:00 0°C° 0 mm 3 mps 731 mmHg 95%
07:00 -1°C° 0 mm 3 mps 731 mmHg 94%
08:00 0°C° 0 mm 3 mps 731 mmHg 94%
09:00 0°C° 0 mm 3 mps 732 mmHg 93%
10:00 0°C° 0 mm 3 mps 732 mmHg 93%
11:00 0°C° 0 mm 3 mps 732 mmHg 93%
12:00 0°C° 0 mm 3 mps 731 mmHg 93%
13:00 -1°C° 0 mm 4 mps 731 mmHg 94%
14:00 -1°C° 0 mm 4 mps 731 mmHg 93%
15:00 -1°C° 0 mm 4 mps 731 mmHg 93%
16:00 -1°C° 0 mm 4 mps 730 mmHg 93%
17:00 -1°C° 0 mm 4 mps 730 mmHg 92%
18:00 -1°C° 0 mm 4 mps 730 mmHg 92%
19:00 -1°C° 0 mm 4 mps 730 mmHg 91%
20:00 -1°C° 0 mm 4 mps 730 mmHg 93%
21:00 -1°C° 0 mm 4 mps 729 mmHg 95%
22:00 -1°C° 0 mm 4 mps 729 mmHg 97%
23:00 -1°C° 0.1 mm 5 mps 729 mmHg 96%

Tomorrow, 19 January, Tuesday

Time Temperature Precipitation Wind Pressure Humidity
00:00 -1°C° 0.1 mm 5 mps 729 mmHg 96%
01:00 -1°C° 0.1 mm 5 mps 729 mmHg 96%
02:00 -1°C° 0.1 mm 5 mps 728 mmHg 95%
03:00 -1°C° 0.1 mm 5 mps 727 mmHg 94%
04:00 -1°C° 0.1 mm 5 mps 726 mmHg 92%
05:00 -2°C° 0.4 mm 6 mps 725 mmHg 94%
06:00 -2°C° 0.4 mm 6 mps 725 mmHg 95%
07:00 -2°C° 0.4 mm 6 mps 724 mmHg 97%
08:00 -2°C° 1.5 mm 6 mps 723 mmHg 97%
09:00 -1°C° 1.5 mm 6 mps 722 mmHg 97%
10:00 -1°C° 1.5 mm 6 mps 722 mmHg 97%
11:00 0°C° 1.5 mm 7 mps 721 mmHg 96%
12:00 0°C° 1.5 mm 7 mps 721 mmHg 95%
13:00 +2°C° 1.5 mm 7 mps 721 mmHg 93%
14:00 +2°C° 0.5 mm 7 mps 720 mmHg 93%
15:00 +3°C° 0.5 mm 6 mps 720 mmHg 93%
16:00 +3°C° 0.5 mm 6 mps 720 mmHg 93%
17:00 +3°C° 0.5 mm 6 mps 721 mmHg 93%
18:00 +3°C° 0.5 mm 6 mps 721 mmHg 94%
19:00 +2°C° 0.5 mm 6 mps 721 mmHg 94%
20:00 +2°C° 0 mm 6 mps 721 mmHg 93%
21:00 +2°C° 0 mm 6 mps 721 mmHg 92%
22:00 +2°C° 0 mm 6 mps 721 mmHg 91%
23:00 +2°C° 0 mm 6 mps 721 mmHg 90%

Day after tomorrow, 20 January, Wednesday

Time Temperature Precipitation Wind Pressure Humidity
00:00 +1°C° 0 mm 6 mps 721 mmHg 89%
01:00 +1°C° 0 mm 6 mps 720 mmHg 89%
02:00 +1°C° 0 mm 6 mps 720 mmHg 88%
03:00 -1°C° 0 mm 6 mps 719 mmHg 87%
04:00 -1°C° 0 mm 5 mps 719 mmHg 85%
05:00 -1°C° 0 mm 5 mps 719 mmHg 86%
06:00 0°C° 0 mm 5 mps 719 mmHg 87%
07:00 0°C° 0 mm 5 mps 718 mmHg 87%
08:00 0°C° 0.1 mm 5 mps 718 mmHg 86%
09:00 0°C° 0.1 mm 5 mps 718 mmHg 84%
10:00 +1°C° 0.1 mm 5 mps 718 mmHg 83%
11:00 +1°C° 0 mm 5 mps 718 mmHg 81%
12:00 +2°C° 0 mm 5 mps 718 mmHg 79%
13:00 +2°C° 0 mm 5 mps 718 mmHg 78%
14:00 +2°C° 0 mm 5 mps 717 mmHg 80%
15:00 +3°C° 0 mm 4 mps 717 mmHg 82%
16:00 +3°C° 0 mm 4 mps 716 mmHg 85%
17:00 +1°C° 0 mm 4 mps 716 mmHg 87%
18:00 +1°C° 0 mm 4 mps 716 mmHg 90%
19:00 +1°C° 0 mm 4 mps 716 mmHg 92%
20:00 +1°C° 0 mm 4 mps 716 mmHg 92%
21:00 +1°C° 0 mm 4 mps 715 mmHg 92%
22:00 +1°C° 0 mm 4 mps 715 mmHg 92%
23:00 +1°C° 0 mm 4 mps 715 mmHg 91%

21 January, Thursday

Time Temperature Precipitation Wind Pressure Humidity
00:00 +1°C° 0 mm 4 mps 714 mmHg 90%
01:00 +1°C° 0 mm 4 mps 714 mmHg 89%
02:00 +1°C° 0 mm 5 mps 714 mmHg 88%
03:00 +1°C° 0 mm 5 mps 713 mmHg 86%
04:00 +1°C° 0 mm 5 mps 713 mmHg 85%
05:00 +2°C° 0 mm 6 mps 713 mmHg 83%
06:00 +2°C° 0 mm 6 mps 712 mmHg 81%
07:00 +2°C° 0 mm 7 mps 712 mmHg 78%
08:00 +3°C° 0 mm 7 mps 712 mmHg 80%
09:00 +3°C° 0 mm 7 mps 712 mmHg 81%
10:00 +3°C° 0 mm 7 mps 712 mmHg 83%
11:00 +3°C° 0.3 mm 6 mps 712 mmHg 85%
12:00 +3°C° 0.3 mm 6 mps 712 mmHg 88%
13:00 +4°C° 0.3 mm 6 mps 712 mmHg 91%
14:00 +3°C° 0.2 mm 5 mps 712 mmHg 87%
15:00 +2°C° 0.2 mm 5 mps 712 mmHg 84%
16:00 +3°C° 0.2 mm 4 mps 712 mmHg 81%
17:00 +1°C° 0 mm 4 mps 712 mmHg 82%
18:00 +1°C° 0 mm 4 mps 712 mmHg 84%
19:00 0°C° 0 mm 4 mps 712 mmHg 86%
20:00 0°C° 0 mm 4 mps 712 mmHg 88%
21:00 +1°C° 0 mm 3 mps 711 mmHg 90%
22:00 +1°C° 0 mm 3 mps 711 mmHg 91%
23:00 +1°C° 0.8 mm 3 mps 710 mmHg 93%

22 January, Friday

Time Temperature Precipitation Wind Pressure Humidity
00:00 +1°C° 0.8 mm 4 mps 709 mmHg 95%
01:00 +3°C° 0.8 mm 4 mps 708 mmHg 96%
02:00 +2°C° 0.2 mm 5 mps 708 mmHg 94%
03:00 +3°C° 0.2 mm 6 mps 708 mmHg 91%
04:00 +4°C° 0.2 mm 7 mps 707 mmHg 89%
05:00 +3°C° 0.8 mm 6 mps 708 mmHg 89%
06:00 +2°C° 0.8 mm 5 mps 708 mmHg 90%
07:00 +3°C° 0.8 mm 4 mps 709 mmHg 90%
08:00 +3°C° 0 mm 4 mps 709 mmHg 89%
09:00 +1°C° 0 mm 4 mps 709 mmHg 89%
10:00 +1°C° 0 mm 4 mps 709 mmHg 88%
11:00 +3°C° 0 mm 4 mps 710 mmHg 85%
12:00 +3°C° 0 mm 4 mps 710 mmHg 82%
13:00 +2°C° 0 mm 5 mps 710 mmHg 79%
14:00 +3°C° 0 mm 4 mps 710 mmHg 80%
15:00 +3°C° 0 mm 4 mps 710 mmHg 80%
16:00 +3°C° 0 mm 4 mps 711 mmHg 81%
17:00 +1°C° 0 mm 4 mps 711 mmHg 83%
18:00 0°C° 0 mm 4 mps 711 mmHg 84%
19:00 0°C° 0 mm 4 mps 712 mmHg 86%
20:00 0°C° 0 mm 3 mps 712 mmHg 88%
21:00 0°C° 0 mm 3 mps 712 mmHg 90%
22:00 0°C° 0 mm 3 mps 712 mmHg 92%
23:00 -1°C° 0 mm 3 mps 712 mmHg 93%

23 January, Saturday

Time Temperature Precipitation Wind Pressure Humidity
00:00 -1°C° 0 mm 2 mps 712 mmHg 94%
01:00 -1°C° 0 mm 2 mps 712 mmHg 96%
02:00 -1°C° 0 mm 2 mps 712 mmHg 96%
03:00 -1°C° 0 mm 2 mps 712 mmHg 96%
04:00 -1°C° 0 mm 2 mps 713 mmHg 97%
05:00 -1°C° 0 mm 2 mps 713 mmHg 96%
06:00 -1°C° 0 mm 2 mps 713 mmHg 96%
07:00 +1°C° 0 mm 1 mps 713 mmHg 96%
08:00 +1°C° 0 mm 1 mps 713 mmHg 95%
09:00 +1°C° 0 mm 2 mps 714 mmHg 94%
10:00 +1°C° 0 mm 2 mps 714 mmHg 93%
11:00 +2°C° 0 mm 2 mps 715 mmHg 90%
12:00 +1°C° 0 mm 3 mps 715 mmHg 88%
13:00 +2°C° 0 mm 3 mps 715 mmHg 86%
14:00 +1°C° 0 mm 3 mps 716 mmHg 85%
15:00 +1°C° 0 mm 3 mps 716 mmHg 84%
16:00 +2°C° 0 mm 2 mps 716 mmHg 84%
17:00 +1°C° 0 mm 2 mps 717 mmHg 85%
18:00 +1°C° 0 mm 2 mps 717 mmHg 85%
19:00 -1°C° 0 mm 2 mps 718 mmHg 86%
20:00 -1°C° 0 mm 2 mps 718 mmHg 86%
21:00 -1°C° 0 mm 2 mps 719 mmHg 86%
22:00 +1°C° 0 mm 1 mps 719 mmHg 86%
23:00 0°C° 0 mm 1 mps 719 mmHg 89%
Show more